Weather History for Hatteras, NC

Change the Weather History Date:

Thursday, December 6, 2012

  Actual Average Record
Temperature  
Mean Temperature 52 °F 52 °F  
Max Temperature 55 °F 58 °F 77 °F (1982)
Min Temperature 49 °F 45 °F 27 °F (1957)
Degree Days  
Heating Degree Days 13 13  
Month to date heating degree days 54 76  
Since 1 July heating degree days 491 394  
Cooling Degree Days 0 0  
Month to date cooling degree days 0 0  
Year to date cooling degree days 2090 1711  
Growing Degree Days 1 (Base 50)    
Moisture  
Dew Point 42 °F    
Average Humidity 70    
Maximum Humidity 77    
Minimum Humidity 63    
Precipitation  
Precipitation 0.00 in 0.13 in 3.59 in (1979)
Month to date precipitation T 0.81  
Year to date precipitation 51.25 54.58  
Snow  
Snow 0.00 in - - ()
Month to date snowfall 0.0  
Since 1 July snowfall 0.0  
Snow Depth 0.00 in    
Sea Level Pressure  
Sea Level Pressure 30.24 in    
Wind  
Wind Speed 9 mph (NE)    
Max Wind Speed 16 mph    
Max Gust Speed 23 mph    
Visibility 10 miles    
Events      
T = Trace of Precipitation, MM = Missing Value Source: NWS Daily Summary

Daily Weather History Graph

Daily Weather History Graph

Search for Another Location

Airport:

Trip Planner

Search our weather history database for the weather conditions in past years. The results will help you decide how hot, cold, wet, or windy it might be!

Date:

Astronomy

Dec. 06, 2012 Rise Set
Actual Time 6:57 AM EST 4:50 PM EST
Civil Twilight 6:29 AM EST 5:18 PM EST
Nautical Twilight 5:57 AM EST 5:49 PM EST
Astronomical Twilight 5:26 AM EST 6:20 PM EST
Moon No Moon Rise 12:01 PM EST (12/6)
Length of Visible Light 10h 48m
Length of Day
9h 52m
Waning Gibbous, 49% of the Moon is Illuminated
Dec 6
Waning Gibbous
Dec 13
New
Dec 20
First Quarter
Dec 28
Full
Jan 4
Last Quarter

Hourly Weather History & Observations

Time (EST) Temp. Dew Point Humidity Pressure Visibility Wind Dir Wind Speed Gust Speed Precip Events Conditions
12:51 AM 54.0 °F 44.1 °F 69% 30.19 in 10.0 mi NE 8.1 mph - N/A   Overcast
1:51 AM 54.0 °F 44.1 °F 69% 30.20 in 10.0 mi NNE 9.2 mph 18.4 mph N/A   Mostly Cloudy
2:51 AM 53.1 °F 45.0 °F 74% 30.20 in 10.0 mi NE 8.1 mph 16.1 mph N/A   Mostly Cloudy
3:51 AM 54.0 °F 44.1 °F 69% 30.20 in 10.0 mi NE 10.4 mph 17.3 mph N/A   Overcast
4:51 AM 52.0 °F 43.0 °F 71% 30.22 in 10.0 mi NE 9.2 mph 18.4 mph N/A   Overcast
5:51 AM 51.1 °F 39.9 °F 66% 30.24 in 10.0 mi NE 10.4 mph 20.7 mph N/A   Overcast
6:51 AM 50.0 °F 39.9 °F 68% 30.25 in 10.0 mi NE 13.8 mph 20.7 mph N/A   Overcast
7:51 AM 50.0 °F 39.9 °F 68% 30.27 in 10.0 mi NE 8.1 mph 20.7 mph N/A   Overcast
8:51 AM 48.9 °F 39.9 °F 71% 30.28 in 10.0 mi NE 10.4 mph 18.4 mph N/A   Overcast
9:51 AM 50.0 °F 41.0 °F 71% 30.30 in 10.0 mi NE 9.2 mph 16.1 mph N/A   Overcast
10:51 AM 53.1 °F 41.0 °F 64% 30.29 in 10.0 mi Variable 6.9 mph 20.7 mph N/A   Clear
11:51 AM 54.0 °F 41.0 °F 62% 30.27 in 10.0 mi NE 11.5 mph 18.4 mph N/A   Mostly Cloudy
12:51 PM 54.0 °F 41.0 °F 62% 30.25 in 10.0 mi NE 10.4 mph 21.9 mph N/A   Clear
1:51 PM 54.0 °F 41.0 °F 62% 30.24 in 10.0 mi NNE 8.1 mph 17.3 mph N/A   Clear
2:51 PM 54.0 °F 42.1 °F 64% 30.24 in 10.0 mi NNE 11.5 mph 17.3 mph N/A   Clear
3:51 PM 52.0 °F 41.0 °F 66% 30.24 in 10.0 mi NE 10.4 mph 17.3 mph N/A   Clear
4:51 PM 50.0 °F 41.0 °F 71% 30.24 in 10.0 mi NE 9.2 mph - N/A   Clear
5:51 PM 50.0 °F 41.0 °F 71% 30.24 in 10.0 mi NE 6.9 mph - N/A   Clear
6:51 PM 50.0 °F 42.1 °F 74% 30.24 in 10.0 mi NE 8.1 mph - N/A   Clear
7:51 PM 50.0 °F 42.1 °F 74% 30.25 in 10.0 mi NE 6.9 mph - N/A   Clear
8:51 PM 51.1 °F 43.0 °F 74% 30.24 in 10.0 mi NE 5.8 mph - N/A   Overcast
9:51 PM 52.0 °F 44.1 °F 74% 30.24 in 10.0 mi NE 8.1 mph 16.1 mph N/A   Overcast
10:51 PM 51.1 °F 45.0 °F 80% 30.21 in 10.0 mi NE 6.9 mph - N/A   Scattered Clouds
11:51 PM 51.1 °F 45.0 °F 80% 30.19 in 10.0 mi NE 8.1 mph - N/A   Clear